2 Carport Messungen

Zurück zum Überblick

Zeitpunkt Temperatur Luftfeuchte
22.05.2019 15:54:53 19,0 C 60,0%
22.05.2019 15:47:50 18,9 C 60,0%
22.05.2019 15:40:49 18,7 C 60,0%
22.05.2019 15:33:45 18,7 C 60,0%
22.05.2019 15:26:43 18,7 C 61,0%
22.05.2019 15:19:39 18,7 C 61,0%
22.05.2019 15:12:37 18,4 C 61,0%
22.05.2019 15:05:34 18,1 C 62,0%
22.05.2019 14:58:32 18,0 C 62,0%
22.05.2019 14:51:30 18,1 C 62,0%
22.05.2019 14:44:27 18,1 C 62,0%
22.05.2019 14:37:25 18,1 C 62,0%
22.05.2019 14:30:25 18,1 C 62,0%
22.05.2019 14:23:23 17,9 C 63,0%
22.05.2019 14:16:21 17,7 C 63,0%
22.05.2019 14:09:18 17,5 C 63,0%
22.05.2019 14:02:16 17,5 C 63,0%
22.05.2019 13:55:15 17,4 C 63,0%
22.05.2019 13:48:12 17,3 C 63,0%
22.05.2019 13:41:11 17,7 C 62,0%
22.05.2019 13:34:11 17,8 C 63,0%
22.05.2019 13:27:09 17,8 C 63,0%
22.05.2019 13:20:08 17,9 C 63,0%
22.05.2019 13:13:06 17,8 C 63,0%
22.05.2019 13:06:04 17,8 C 63,0%
22.05.2019 12:59:01 17,7 C 62,0%
22.05.2019 12:52:01 17,5 C 63,0%
22.05.2019 12:44:58 17,5 C 63,0%
22.05.2019 12:37:58 17,5 C 63,0%
22.05.2019 12:30:56 17,5 C 62,0%
22.05.2019 12:23:54 17,5 C 62,0%
22.05.2019 12:16:51 17,5 C 62,0%
22.05.2019 12:09:49 17,6 C 62,0%
22.05.2019 12:02:48 17,7 C 61,0%
22.05.2019 11:55:46 18,0 C 61,0%
22.05.2019 11:48:44 18,2 C 61,0%
22.05.2019 11:47:00 18,2 C 61,0%
22.05.2019 11:34:39 18,4 C 61,0%
22.05.2019 11:27:38 18,4 C 61,0%
22.05.2019 11:20:36 18,5 C 61,0%
22.05.2019 11:13:34 18,5 C 61,0%
22.05.2019 11:06:33 18,5 C 61,0%
22.05.2019 10:59:30 18,6 C 61,0%
22.05.2019 10:52:28 18,5 C 61,0%
22.05.2019 10:45:27 18,2 C 62,0%
22.05.2019 10:38:24 18,1 C 62,0%
22.05.2019 10:31:23 18,1 C 62,0%
22.05.2019 10:24:20 18,2 C 62,0%
22.05.2019 10:17:18 18,3 C 62,0%
22.05.2019 10:10:16 18,4 C 62,0%
22.05.2019 10:03:13 18,5 C 62,0%
22.05.2019 09:56:11 18,4 C 62,0%
22.05.2019 09:49:10 18,1 C 63,0%
22.05.2019 09:42:09 18,0 C 63,0%
22.05.2019 09:35:07 17,9 C 63,0%
22.05.2019 09:28:06 17,9 C 63,0%
22.05.2019 09:21:04 17,9 C 64,0%
22.05.2019 09:14:02 17,8 C 64,0%
22.05.2019 09:07:00 17,6 C 64,0%
22.05.2019 09:00:00 17,4 C 65,0%
22.05.2019 08:52:57 17,3 C 65,0%
22.05.2019 08:45:54 17,1 C 65,0%
22.05.2019 08:38:52 17,1 C 65,0%
22.05.2019 08:31:52 17,1 C 65,0%
22.05.2019 08:24:51 17,0 C 65,0%
22.05.2019 08:17:49 17,0 C 65,0%
22.05.2019 08:10:46 17,0 C 65,0%
22.05.2019 08:03:44 17,0 C 65,0%
22.05.2019 07:56:42 17,0 C 65,0%
22.05.2019 07:49:40 16,9 C 65,0%
22.05.2019 07:42:37 16,9 C 66,0%
22.05.2019 07:35:34 16,8 C 65,0%
22.05.2019 07:28:31 16,7 C 66,0%
22.05.2019 07:21:28 16,7 C 65,0%
22.05.2019 07:14:27 16,7 C 65,0%
22.05.2019 07:12:43 16,7 C 65,0%
22.05.2019 07:00:22 16,7 C 65,0%
22.05.2019 06:53:21 16,7 C 65,0%
22.05.2019 06:46:18 16,7 C 65,0%
22.05.2019 06:39:16 16,7 C 65,0%
22.05.2019 06:32:15 16,7 C 65,0%
22.05.2019 06:25:14 16,7 C 65,0%
22.05.2019 06:18:11 16,7 C 65,0%
22.05.2019 06:11:10 16,7 C 65,0%
22.05.2019 06:04:08 16,7 C 65,0%
22.05.2019 05:57:05 16,8 C 65,0%
22.05.2019 05:50:00 16,8 C 65,0%
22.05.2019 05:43:03 16,8 C 65,0%
22.05.2019 05:36:02 16,9 C 65,0%
22.05.2019 05:29:00 16,9 C 65,0%
22.05.2019 05:22:00 17,0 C 65,0%
22.05.2019 05:14:57 17,0 C 64,0%
22.05.2019 05:07:55 17,0 C 64,0%
22.05.2019 05:00:54 17,0 C 64,0%
22.05.2019 04:53:50 17,1 C 64,0%
22.05.2019 04:46:48 17,1 C 64,0%
22.05.2019 04:39:47 17,1 C 64,0%
22.05.2019 04:32:45 17,2 C 64,0%
22.05.2019 04:25:43 17,2 C 64,0%
22.05.2019 04:18:41 17,3 C 64,0%
22.05.2019 04:11:38 17,3 C 64,0%
22.05.2019 04:04:35 17,3 C 64,0%
22.05.2019 03:57:33 17,4 C 64,0%
22.05.2019 03:50:32 17,4 C 64,0%
22.05.2019 03:43:28 17,5 C 64,0%
22.05.2019 03:41:44 17,5 C 64,0%
22.05.2019 03:29:25 17,5 C 64,0%
22.05.2019 03:22:24 17,6 C 64,0%
22.05.2019 03:15:21 17,6 C 64,0%
22.05.2019 03:08:19 17,7 C 64,0%
22.05.2019 03:01:20 17,8 C 64,0%
22.05.2019 02:54:18 17,8 C 64,0%
22.05.2019 02:47:16 17,8 C 64,0%
22.05.2019 02:40:13 17,9 C 64,0%
22.05.2019 02:33:11 18,0 C 64,0%
22.05.2019 02:26:09 18,0 C 64,0%
22.05.2019 02:19:08 18,1 C 64,0%
22.05.2019 02:12:06 18,1 C 64,0%
22.05.2019 02:05:05 18,2 C 64,0%
22.05.2019 01:58:04 18,2 C 64,0%
22.05.2019 01:51:03 18,3 C 64,0%
22.05.2019 01:44:02 18,4 C 63,0%
22.05.2019 01:36:59 18,4 C 63,0%
22.05.2019 01:29:57 18,5 C 63,0%
22.05.2019 01:22:53 18,6 C 63,0%
22.05.2019 01:15:51 18,6 C 63,0%
22.05.2019 01:08:49 18,7 C 63,0%
22.05.2019 01:01:48 18,7 C 63,0%
22.05.2019 00:54:44 18,8 C 63,0%
22.05.2019 00:47:46 18,8 C 63,0%
22.05.2019 00:40:42 19,0 C 63,0%
22.05.2019 00:33:42 19,0 C 63,0%
22.05.2019 00:26:40 19,1 C 63,0%
22.05.2019 00:19:37 19,2 C 63,0%
22.05.2019 00:12:34 19,3 C 62,0%
22.05.2019 00:05:31 19,3 C 62,0%